Location: Huberhof
(49.2050°N, 7.4980°E)
Time: 04:34:28
(UTC+00:00)

NOAA 11 - Pass Details

Date: 29 October 2020
Orbit: 833 x 850 km, 98.4° (Epoch: 25 November)

Event Time Altitude Azimuth Distance (km) Brightness Sun altitude
Rises 17:18:57 0° 167° (SSE) 3,381 7.3 -11.2°
Reaches altitude 10° 17:21:18 10° 169° (SSE) 2,449 6.6 -11.6°
Maximum altitude 17:26:44 79° 256° (WSW) 857 4.3 -12.5°
Drops below altitude 10° 17:32:12 10° 344° (NNW) 2,457 6.8 -13.4°
Sets 17:34:35 0° 345° (NNW) 3,395 7.5 -13.8°
